Location: Ambatotampy
(18.8181°S, 47.6186°E)
Time: 00:12:39
(UTC+00:00)

FALCON 9 DEB - Pass Details

Date: 21 January 2021
Orbit: 377 x 390 km, 53.0° (Epoch: 24 February)

Event Time Altitude Azimuth Distance (km) Brightness Sun altitude
Exits shadow 00:55:37 24° 204° (SSW) 866 4.7 -20.6°
Maximum altitude 00:57:21 64° 127° (SE) 440 3.3 -20.3°
Drops below altitude 10° 01:00:31 10° 45° (NE) 1,423 5.9 -19.6°
Sets 01:02:34 0° 42° (NE) 2,269 6.9 -19.2°
